CW8721 Weather Reports


Display with metric or nautical units.
time (UTC)temp
F
wind
direction
speed
MPH
gust
MPH
rain 1hr
in
rain 24hr
in
rain mn
in
humidity
%
barometer
mb
20260904042023 69 134 1.0 3.0 0.00 0.00 0.00 28 1000.2
20260904041521 70 109 2.0 3.0 0.00 0.00 0.00 26 1000.1
20260904041021 70 108 1.0 4.0 0.00 0.00 0.00 25 1000.2
20260904040526 70 103 2.0 4.0 0.00 0.00 0.00 25 1000.0
20260904040021 71 107 1.0 4.0 0.00 0.00 0.00 25 1000.1
20260904035519 71 116 1.0 4.0 0.00 0.00 0.00 23 1000.0
20260904035019 72 123 2.0 4.0 0.00 0.00 0.00 22 1000.0
20260904034540 72 111 1.0 3.0 0.00 0.00 0.00 24 1000.0
20260904034020 72 111 2.0 4.0 0.00 0.00 0.00 23 999.9
20260904033519 73 129 2.0 4.0 0.00 0.00 0.00 23 999.9
20260904033019 73 155 1.0 3.0 0.00 0.00 0.00 22 1000.0
20260904032519 74 172 0.0 3.0 0.00 0.00 0.00 21 999.8
20260904032019 74 169 0.0 2.0 0.00 0.00 0.00 21 1000.0
20260904031521 76 177 0.0 3.0 0.00 0.00 0.00 20 1000.0
20260904031019 77 175 1.0 4.0 0.00 0.00 0.00 20 999.9
20260904030519 78 182 1.0 4.0 0.00 0.00 0.00 18 1000.0
20260904030019 78 179 1.0 3.0 0.00 0.00 0.00 17 1000.0
20260904025519 78 175 1.0 3.0 0.00 0.00 0.00 18 1000.0
20260904025018 79 175 1.0 4.0 0.00 0.00 0.00 17 1000.0
20260904024518 79 175 2.0 4.0 0.00 0.00 0.00 16 1000.0
20260904024018 79 183 2.0 4.0 0.00 0.00 0.00 17 999.9
20260904023518 80 182 1.0 4.0 0.00 0.00 0.00 16 999.9
20260904023018 80 183 2.0 5.0 0.00 0.00 0.00 16 999.9
20260904022520 80 178 2.0 6.0 0.00 0.00 0.00 16 999.8
20260904022021 81 173 2.0 8.0 0.00 0.00 0.00 16 999.8
20260904021517 81 185 4.0 8.0 0.00 0.00 0.00 15 999.9
20260904021017 81 173 2.0 9.0 0.00 0.00 0.00 15 999.9
20260904020517 82 177 3.0 9.0 0.00 0.00 0.00 14 999.7
20260904020016 82 167 4.0 8.0 0.00 0.00 0.00 14 999.8
20260904015517 82 168 3.0 8.0 0.00 0.00 0.00 15 999.9
20260904015015 83 169 4.0 10.0 0.00 0.00 0.00 14 999.9
20260904014514 83 184 4.0 10.0 0.00 0.00 0.00 14 999.9
20260904014013 83 163 5.0 11.0 0.00 0.00 0.00 14 1000.0
20260904013514 83 153 3.0 10.0 0.00 0.00 0.00 14 1000.1
20260904013013 83 134 5.0 10.0 0.00 0.00 0.00 14 1000.1
20260904012513 84 208 3.0 10.0 0.00 0.00 0.00 15 1000.1
20260904012116 84 181 6.0 10.0 0.00 0.00 0.00 13 1000.2
20260904011542 84 188 7.0 10.0 0.00 0.00 0.00 14 1000.2
20260904011011 84 195 3.0 10.0 0.00 0.00 0.00 14 1000.3
20260904010512 84 173 5.0 12.0 0.00 0.00 0.00 13 1000.2
20260904010011 84 180 4.0 9.0 0.00 0.00 0.00 14 1000.4
20260904005515 84 179 4.0 12.0 0.00 0.00 0.00 14 1000.4
20260904005010 84 183 6.0 12.0 0.00 0.00 0.00 13 1000.4
20260904004510 84 178 6.0 10.0 0.00 0.00 0.00 14 1000.5
20260904004010 84 169 5.0 9.0 0.00 0.00 0.00 14 1000.5
20260904003511 84 186 4.0 8.0 0.00 0.00 0.00 15 1000.4
20260904003013 84 178 4.0 10.0 0.00 0.00 0.00 14 1000.4
20260904002509 84 182 6.0 10.0 0.00 0.00 0.00 14 1000.4
20260904002009 84 182 5.0 10.0 0.00 0.00 0.00 14 1000.4
20260904001509 84 176 2.0 9.0 0.00 0.00 0.00 15 1000.5
20260904001008 84 188 5.0 11.0 0.00 0.00 0.00 14 1000.4
20260904000509 85 178 7.0 15.0 0.00 0.00 0.00 14 1000.5
20260904000109 85 178 6.0 15.0 0.00 0.00 0.00 14 1000.6
20260903235609 85 185 5.0 14.0 0.00 0.00 0.00 14 1000.5
20260903235006 85 180 5.0 16.0 0.00 0.00 0.00 14 1000.6
20260903234606 85 151 7.0 18.0 0.00 0.00 0.00 13 1000.6
20260903234006 86 178 8.0 18.0 0.00 0.00 0.00 13 1000.6
20260903233505 86 139 7.0 13.0 0.00 0.00 0.00 13 1000.5
20260903233015 86 179 6.0 17.0 0.00 0.00 0.00 13 1000.7
20260903232505 86 163 4.0 17.0 0.00 0.00 0.00 13 1000.8
20260903232005 86 172 9.0 15.0 0.00 0.00 0.00 13 1000.8
20260903231504 86 197 8.0 15.0 0.00 0.00 0.00 13 1000.9
20260903231003 86 171 9.0 17.0 0.00 0.00 0.00 12 1000.9
20260903230505 86 189 7.0 20.0 0.00 0.00 0.00 13 1001.0
20260903230002 86 155 10.0 21.0 0.00 0.00 0.00 13 1001.0
20260903225506 86 182 8.0 15.0 0.00 0.00 0.00 13 1001.1
20260903225002 85 168 9.0 13.0 0.00 0.00 0.00 12 1001.2
20260903224503 85 186 8.0 17.0 0.00 0.00 0.00 12 1001.2
20260903224001 85 145 9.0 21.0 0.00 0.00 0.00 12 1001.2
20260903223600 85 163 11.0 21.0 0.00 0.00 0.00 11 1001.2
20260903223101 85 199 11.0 27.0 0.00 0.00 0.00 12 1001.4
20260903222601 86 112 10.0 27.0 0.00 0.00 0.00 11 1001.4
20260903222059 86 174 7.0 13.0 0.00 0.00 0.00 13 1001.4
20260903221558 86 159 6.0 14.0 0.00 0.00 0.00 13 1001.5
20260903221057 86 171 7.0 14.0 0.00 0.00 0.00 12 1001.5
20260903220600 86 126 5.0 15.0 0.00 0.00 0.00 13 1001.6
20260903220112 86 194 7.0 15.0 0.00 0.00 0.00 12 1001.7
20260903215556 86 186 6.0 13.0 0.00 0.00 0.00 12 1001.6
20260903215055 86 169 8.0 16.0 0.00 0.00 0.00 12 1001.8
20260903214556 86 186 7.0 16.0 0.00 0.00 0.00 13 1001.8
20260903214054 86 176 5.0 15.0 0.00 0.00 0.00 13 1002.0
20260903213554 86 198 7.0 16.0 0.00 0.00 0.00 13 1002.0
20260903213059 86 197 6.0 16.0 0.00 0.00 0.00 12 1002.0
20260903212557 86 125 8.0 19.0 0.00 0.00 0.00 12 1002.0
20260903212053 86 176 7.0 19.0 0.00 0.00 0.00 12 1002.1
20260903211557 85 202 6.0 18.0 0.00 0.00 0.00 13 1002.2
20260903211051 86 163 7.0 16.0 0.00 0.00 0.00 12 1002.3
20260903210551 86 180 7.0 15.0 0.00 0.00 0.00 13 1002.4
20260903210053 86 200 6.0 13.0 0.00 0.00 0.00 13 1002.6
20260903205549 85 158 5.0 17.0 0.00 0.00 0.00 12 1002.5
20260903205048 85 182 6.0 17.0 0.00 0.00 0.00 13 1002.7
20260903204548 85 181 5.0 10.0 0.00 0.00 0.00 13 1002.7
20260903204047 85 183 5.0 10.0 0.00 0.00 0.00 14 1002.7
20260903203546 84 155 3.0 13.0 0.00 0.00 0.00 14 1002.8
20260903203108 85 159 8.0 13.0 0.00 0.00 0.00 13 1003.1
20260903202546 85 192 6.0 12.0 0.00 0.00 0.00 13 1003.2
20260903202045 84 210 7.0 12.0 0.00 0.00 0.00 13 1003.2
20260903201545 84 173 5.0 13.0 0.00 0.00 0.00 15 1003.3
20260903201043 83 164 7.0 19.0 0.00 0.00 0.00 15 1003.2
20260903200542 83 162 7.0 19.0 0.00 0.00 0.00 15 1003.3
20260903200042 83 177 7.0 11.0 0.00 0.00 0.00 15 1003.4
20260903195546 83 180 6.0 14.0 0.00 0.00 0.00 15 1003.4
20260903195039 82 175 6.0 14.0 0.00 0.00 0.00 17 1003.5
20260903194539 82 186 5.0 13.0 0.00 0.00 0.00 17 1003.6
20260903194038 82 98 4.0 12.0 0.00 0.00 0.00 15 1003.7
20260903193544 82 168 6.0 12.0 0.00 0.00 0.00 15 1003.7
20260903193040 82 173 6.0 16.0 0.00 0.00 0.00 14 1003.7
20260903192538 81 176 6.0 16.0 0.00 0.00 0.00 16 1003.7
20260903192035 81 202 6.0 12.0 0.00 0.00 0.00 16 1003.9
20260903191535 81 26 2.0 14.0 0.00 0.00 0.00 24 1004.0
20260903191035 81 189 7.0 14.0 0.00 0.00 0.00 17 1004.1
20260903190536 81 139 4.0 12.0 0.00 0.00 0.00 21 1004.1
20260903190032 80 184 6.0 11.0 0.00 0.00 0.00 17 1004.2
20260903185531 79 164 6.0 14.0 0.00 0.00 0.00 20 1004.2
20260903185031 79 209 9.0 16.0 0.00 0.00 0.00 25 1004.1
20260903184534 79 214 7.0 16.0 0.00 0.00 0.00 16 1004.3
20260903184131 77 155 4.0 12.0 0.00 0.00 0.00 22 1004.3
20260903183530 77 173 3.0 15.0 0.00 0.00 0.00 29 1004.5
20260903183037 76 269 7.0 16.0 0.00 0.00 0.00 30 1004.6
20260903182533 77 236 7.0 9.0 0.00 0.00 0.00 31 1004.7
20260903182029 76 293 2.0 9.0 0.00 0.00 0.00 33 1004.8
20260903181529 76 291 6.0 15.0 0.00 0.00 0.00 32 1004.8
20260903181030 76 306 9.0 15.0 0.00 0.00 0.00 31 1005.0
20260903180529 76 232 5.0 9.0 0.00 0.00 0.00 29 1005.2
20260903180026 76 236 6.0 11.0 0.00 0.00 0.00 29 1005.2
20260903175525 76 267 2.0 13.0 0.00 0.00 0.00 27 1005.2
20260903175023 77 241 6.0 13.0 0.00 0.00 0.00 29 1005.2
20260903174525 80 327 1.0 7.0 0.00 0.00 0.00 19 1005.1
20260903174022 80 207 3.0 10.0 0.00 0.00 0.00 18 1005.1
20260903173520 79 53 4.0 10.0 0.00 0.00 0.00 16 1005.2
20260903173019 78 182 5.0 14.0 0.00 0.00 0.00 16 1005.2
20260903172518 78 167 3.0 14.0 0.00 0.00 0.00 17 1005.3
20260903172016 78 190 2.0 12.0 0.00 0.00 0.00 21 1005.3
20260903171515 77 98 6.0 12.0 0.00 0.00 0.00 17 1005.3
20260903171014 78 155 5.0 11.0 0.00 0.00 0.00 18 1005.2
20260903170512 78 112 2.0 11.0 0.00 0.00 0.00 21 1005.3
20260903170016 77 176 4.0 14.0 0.00 0.00 0.00 18 1005.4
20260903165510 76 159 5.0 14.0 0.00 0.00 0.00 17 1005.4
20260903165009 76 192 9.0 14.0 0.00 0.00 0.00 17 1005.4
20260903164509 76 188 6.0 12.0 0.00 0.00 0.00 18 1005.5
20260903164004 75 217 6.0 11.0 0.00 0.00 0.00 19 1005.5
20260903163503 75 168 6.0 11.0 0.00 0.00 0.00 18 1005.5
20260903163001 75 148 5.0 13.0 0.00 0.00 0.00 20 1005.5
20260903162501 75 183 6.0 13.0 0.00 0.00 0.00 20 1005.5
20260903162100 74 119 4.0 15.0 0.00 0.00 0.00 20 1005.5
20260903161559 74 169 3.0 15.0 0.00 0.00 0.00 21 1005.4
20260903161057 74 154 6.0 12.0 0.00 0.00 0.00 19 1005.3
20260903160556 74 180 2.0 9.0 0.00 0.00 0.00 23 1005.5
20260903160055 73 134 4.0 11.0 0.00 0.00 0.00 21 1005.4
20260903155551 72 141 1.0 6.0 0.00 0.00 0.00 27 1005.4
20260903155051 71 122 3.0 6.0 0.00 0.00 0.00 31 1005.4
20260903154551 69 297 2.0 4.0 0.00 0.00 0.00 37 1005.4
20260903154048 69 328 1.0 3.0 0.00 0.00 0.00 39 1005.5
20260903153547 68 54 1.0 2.0 0.00 0.00 0.00 41 1005.6
20260903153045 67 55 0.0 3.0 0.00 0.00 0.00 38 1005.6
20260903152545 67 345 2.0 3.0 0.00 0.00 0.00 43 1005.7
20260903152046 66 50 2.0 3.0 0.00 0.00 0.00 41 1005.7
20260903151542 65 12 1.0 4.0 0.00 0.00 0.00 41 1005.8
20260903151040 65 65 1.0 4.0 0.00 0.00 0.00 44 1005.8
20260903150540 64 83 2.0 3.0 0.00 0.00 0.00 41 1005.6
20260903150039 63 92 0.0 3.0 0.00 0.00 0.00 47 1005.7
20260903145538 62 92 1.0 3.0 0.00 0.00 0.00 46 1005.7
20260903145038 62 92 1.0 3.0 0.00 0.00 0.00 47 1005.7
20260903144544 61 92 0.0 1.0 0.00 0.00 0.00 49 1005.7
20260903144040 61 93 0.0 2.0 0.00 0.00 0.00 47 1005.7
20260903143537 60 93 0.0 2.0 0.00 0.00 0.00 46 1005.7
20260903143044 60 93 0.0 2.0 0.00 0.00 0.00 49 1005.8
20260903142536 59 93 0.0 3.0 0.00 0.00 0.00 49 1005.7
20260903142036 58 93 0.0 2.0 0.00 0.00 0.00 52 1005.8
20260903141535 58 94 0.0 3.0 0.00 0.00 0.00 52 1005.7
20260903141036 58 93 1.0 4.0 0.00 0.00 0.00 51 1005.7
20260903140534 58 94 2.0 4.0 0.00 0.00 0.00 48 1005.7
20260903140040 58 144 1.0 3.0 0.00 0.00 0.00 48 1005.6
20260903135532 58 360 1.0 3.0 0.00 0.00 0.00 48 1005.5
20260903135035 59 360 0.0 3.0 0.00 0.00 0.00 44 1005.5
20260903134532 60 228 0.0 5.0 0.00 0.00 0.00 42 1005.3
20260903132526 58 205 2.0 4.0 0.00 0.00 0.00 44 1005.1
20260903132027 58 211 1.0 5.0 0.00 0.00 0.00 45 1005.0
20260903131527 58 232 2.0 5.0 0.00 0.00 0.00 45 1005.0
20260903131024 58 220 1.0 3.0 0.00 0.00 0.00 46 1004.9
20260903130525 58 220 0.0 3.0 0.00 0.00 0.00 45 1004.9
20260903130023 58 219 1.0 2.0 0.00 0.00 0.00 46 1004.8
20260903125522 58 219 1.0 2.0 0.00 0.00 0.00 46 1004.7
20260903125022 58 220 1.0 2.0 0.00 0.00 0.00 45 1004.9
20260903124521 59 224 0.0 0.0 0.00 0.00 0.00 46 1004.8
20260903124022 59 224 0.0 0.0 0.00 0.00 0.00 46 1004.8
20260903124003 59 224 0.0 0.0 0.00 0.00 0.00 46 1004.7
20260903120558 58 224 0.0 2.0 0.00 0.00 0.00 46 1004.6
20260903120104 57 224 1.0 3.0 0.00 0.00 0.00 48 1004.6
20260903115555 57 224 0.0 3.0 0.00 0.00 0.00 53 1004.6
20260903115055 57 224 0.0 2.0 0.00 0.00 0.00 49 1004.5
20260903114555 58 224 1.0 2.0 0.00 0.00 0.00 51 1004.6
20260903114054 57 228 0.0 1.0 0.00 0.00 0.00 48 1004.5
20260903113552 58 228 0.0 1.0 0.00 0.00 0.00 48 1004.5
20260903113131 58 228 0.0 2.0 0.00 0.00 0.00 49 1004.6
20260903112551 59 228 0.0 2.0 0.00 0.00 0.00 49 1004.5
20260903112051 59 228 1.0 2.0 0.00 0.00 0.00 50 1004.5
20260903111550 60 228 1.0 2.0 0.00 0.00 0.00 49 1004.5
20260903111050 60 228 1.0 2.0 0.00 0.00 0.00 47 1004.5
20260903110550 60 228 0.0 2.0 0.00 0.00 0.00 45 1004.6
20260903110054 60 228 1.0 3.0 0.00 0.00 0.00 46 1004.5
20260903105549 60 228 1.0 3.0 0.00 0.00 0.00 44 1004.4
20260903105049 59 228 0.0 3.0 0.00 0.00 0.00 44 1004.4
20260903104559 59 228 0.0 3.0 0.00 0.00 0.00 44 1004.4
20260903104048 59 227 0.0 1.0 0.00 0.00 0.00 43 1004.4
20260903103548 58 227 0.0 3.0 0.00 0.00 0.00 46 1004.5
20260903103048 58 228 0.0 3.0 0.00 0.00 0.00 46 1004.5
20260903102546 59 227 1.0 2.0 0.00 0.00 0.00 45 1004.5
20260903102044 59 225 0.0 3.0 0.00 0.00 0.00 43 1004.5
20260903101544 60 225 0.0 4.0 0.00 0.00 0.00 42 1004.5
20260903101043 61 225 2.0 4.0 0.00 0.00 0.00 40 1004.4
20260903100543 61 223 2.0 4.0 0.00 0.00 0.00 40 1004.3
20260903100044 62 223 1.0 4.0 0.00 0.00 0.00 40 1004.2
20260903095541 61 204 1.0 3.0 0.00 0.00 0.00 41 1004.1
20260903095040 61 203 0.0 2.0 0.00 0.00 0.00 44 1004.0
20260903094549 61 194 0.0 2.0 0.00 0.00 0.00 45 1004.0
20260903094039 61 226 0.0 3.0 0.00 0.00 0.00 42 1004.0
20260903093537 62 226 1.0 3.0 0.00 0.00 0.00 40 1004.0
20260903093042 62 229 0.0 2.0 0.00 0.00 0.00 40 1003.9
20260903092536 62 229 0.0 2.0 0.00 0.00 0.00 40 1003.7
20260903092038 62 236 0.0 2.0 0.00 0.00 0.00 40 1003.7
20260903091545 62 236 0.0 2.0 0.00 0.00 0.00 38 1003.5
20260903091032 63 236 0.0 2.0 0.00 0.00 0.00 38 1003.6
20260903090531 63 236 1.0 2.0 0.00 0.00 0.00 38 1003.5
20260903090036 64 236 0.0 2.0 0.00 0.00 0.00 37 1003.3
20260903085529 63 236 0.0 2.0 0.00 0.00 0.00 37 1003.4
20260903085031 63 236 0.0 3.0 0.00 0.00 0.00 37 1003.4
20260903084528 64 236 0.0 4.0 0.00 0.00 0.00 37 1003.4
20260903084028 64 246 2.0 4.0 0.00 0.00 0.00 36 1003.5
20260903083529 64 248 0.0 2.0 0.00 0.00 0.00 38 1003.5
20260903083028 64 251 1.0 3.0 0.00 0.00 0.00 38 1003.5
20260903082528 64 257 2.0 3.0 0.00 0.00 0.00 37 1003.5
20260903082027 64 259 1.0 2.0 0.00 0.00 0.00 38 1003.4
20260903081526 64 260 0.0 0.0 0.00 0.00 0.00 38 1003.5
20260903081024 65 260 0.0 3.0 0.00 0.00 0.00 37 1003.4
20260903080524 65 260 0.0 6.0 0.00 0.00 0.00 36 1003.4
20260903080024 65 276 3.0 6.0 0.00 0.00 0.00 35 1003.4
20260903075523 65 267 1.0 6.0 0.00 0.00 0.00 35 1003.4
20260903075026 65 298 2.0 6.0 0.00 0.00 0.00 36 1003.4
20260903074521 65 314 3.0 7.0 0.00 0.00 0.00 35 1003.3
20260903074021 65 252 3.0 6.0 0.00 0.00 0.00 36 1003.4
20260903073525 65 259 1.0 5.0 0.00 0.00 0.00 35 1003.2
20260903073031 65 267 2.0 6.0 0.00 0.00 0.00 36 1003.2
20260903072519 66 267 2.0 4.0 0.00 0.00 0.00 35 1003.1
20260903072018 66 266 2.0 4.0 0.00 0.00 0.00 34 1003.1
20260903071526 66 265 1.0 4.0 0.00 0.00 0.00 34 1002.9
20260903071020 66 267 2.0 5.0 0.00 0.00 0.00 34 1002.9
20260903070517 66 276 3.0 7.0 0.00 0.00 0.00 34 1002.9
20260903070019 66 263 3.0 7.0 0.00 0.00 0.00 34 1002.9
20260903065516 67 261 2.0 3.0 0.00 0.00 0.00 34 1002.8
20260903065015 67 256 2.0 6.0 0.00 0.00 0.00 33 1003.0
20260903064515 67 261 2.0 6.0 0.00 0.00 0.00 33 1002.9
20260903064014 67 316 2.0 5.0 0.00 0.00 0.00 33 1003.0
20260903063514 67 301 2.0 4.0 0.00 0.00 0.00 33 1003.0